Showing default

ASTROCAST-0101, 47430

Orbit data source: Space-Track

ASTROCAST-0101, 47430 is a payload satellite owned by Astrocast (CH) in SSO that was launched on Sun, 24 Jan 2021 UTC via an FALCON 9 launch vehicle from the Air Force Eastern Test Range (AFETR). Payload-class satellites include a variety of spacecraft equipped with specific instruments for various scientific and technological missions. These include communications satellites like Starlink; space stations such as the ISS; scientific satellites like the Hubble; Earth observation satellites from companies like Planet Labs, Umbra, and HawkEye 360; GPS; miniature CubeSats for education and research; and military/defense satellites.

Loading next visibility...
Identifier
47430, 2021-006T
Orbit
SSO
Country
Flag of UnknownUnknown / SWTZ
Related business
Manufacturer
Astrocast
Mission
Operational Commercial Communications
Bus & Motor
CUBESAT 3U, Unknown motor
Mass
5 kg wet, 5 kg dry
Launch date (UTC)
2021-01-24 (5 years ago)
Launch vehicle
FALCON 9
Launch site
Air Force Eastern Test Range (AFETR)
Object type
Payload
Rocket body
Debris
Shape & HBR
Box, Unknown HBR
Radar Cross Section
0.035 m², Medium (>0.1 m² and < 1m²)

Expand to show TLE details & history
Last TLE update: 8 hours ago

TLE from 8 hours ago
0 ASTROCAST-0101
1 47430U 21006T   26037.09690760  .00051899  00000-0  62895-3 0  9997
2 47430  97.2532 101.6390 0002220 218.2205 141.8895 15.60492258279404
Epoch: 2026-02-06T02:19Z
TLE epoch observation values (Epoch: 2026-02-06T02:19:32.816Z)
Latitude
-0.00007°
Longitude
-69.48741°
Altitude
390.566 km
Speed
7.675 km/s
True Right ascension
06h 46m 33s
True Declination
0° 00' 00"
Sunlit
Object was in full shadow at epoch
Visualization orbit readout
Latitude
Unknown
Longitude
Unknown
Altitude
Unknown
Speed
Unknown
Apparent Right ascension
Unknown
Apparent Declination
Unknown
Sunlit
N/A
Visualization observer readout
Local Sidereal Time
12:07:02
Azimuth
Unknown
Elevation
Unknown
Doppler factor
Unknown
Orbital elements
Apogee altitude
384.641 km
Perigee altitude
381.639 km
Semi-major axis
6,761.277 km
Eccentricity
0.00022
Inclination
97.2532°
RAAN
101.639°
Arg. of periapsis
218.2205°
True anomaly
141.9052°
Mean anomaly
141.8895°
Eccentric anomaly
141.89735°
Mean motion
3.90391 °/min
Orbital period
92.22 mins
BSTAR
0.00062895
Loading maneuver chart data...
Computing Atmospheric mass density...

Documentation

Showing up to 5 results
|